| time (UTC) | temp F | wind direction | speed MPH | gust MPH | rain 1hr in | rain 24hr in | rain mn in | humidity % | barometer mb |
| 20260505204426 | 52 | 324 | 13.0 | 24.0 | 0.00 | 0.00 | 0.00 | 38 | 1009.6 |
| 20260505203923 | 52 | 314 | 24.0 | 36.0 | 0.00 | 0.00 | 0.00 | 39 | 1009.4 |
| 20260505203419 | 51 | 343 | 15.0 | 27.0 | 0.00 | 0.00 | 0.00 | 39 | 1009.3 |
| 20260505202916 | 51 | 17 | 10.0 | 23.0 | 0.00 | 0.00 | 0.00 | 39 | 1009.5 |
| 20260505202412 | 52 | 318 | 15.0 | 26.0 | 0.00 | 0.00 | 0.00 | 42 | 1009.6 |
| 20260505201909 | 52 | 327 | 14.0 | 26.0 | 0.00 | 0.00 | 0.00 | 41 | 1009.6 |
| 20260505201406 | 51 | 300 | 18.0 | 24.0 | 0.00 | 0.00 | 0.00 | 41 | 1009.6 |
| 20260505200904 | 52 | 309 | 20.0 | 27.0 | 0.00 | 0.00 | 0.00 | 42 | 1009.6 |
| 20260505200401 | 51 | 308 | 17.0 | 27.0 | 0.00 | 0.00 | 0.00 | 41 | 1009.5 |
| 20260505195856 | 52 | 317 | 24.0 | 24.0 | 0.00 | 0.00 | 0.00 | 41 | 1009.6 |
| 20260505195354 | 52 | 306 | 20.0 | 24.0 | 0.00 | 0.00 | 0.00 | 42 | 1009.8 |
| 20260505194851 | 51 | 315 | 21.0 | 32.0 | 0.00 | 0.00 | 0.00 | 43 | 1009.6 |
| 20260505194348 | 51 | 299 | 13.0 | 25.0 | 0.00 | 0.00 | 0.00 | 43 | 1009.7 |
| 20260505193843 | 52 | 306 | 12.0 | 22.0 | 0.00 | 0.00 | 0.00 | 43 | 1009.8 |
| 20260505193341 | 51 | 306 | 20.0 | 31.0 | 0.00 | 0.00 | 0.00 | 40 | 1009.6 |
| 20260505192838 | 52 | 300 | 24.0 | 28.0 | 0.00 | 0.00 | 0.00 | 41 | 1009.5 |
| 20260505192337 | 52 | 316 | 16.0 | 29.0 | 0.00 | 0.00 | 0.00 | 42 | 1009.5 |
| 20260505191834 | 51 | 296 | 10.0 | 21.0 | 0.00 | 0.00 | 0.00 | 43 | 1009.4 |
| 20260505191332 | 51 | 352 | 16.0 | 19.0 | 0.00 | 0.00 | 0.00 | 45 | 1009.4 |
| 20260505190829 | 51 | 312 | 15.0 | 22.0 | 0.00 | 0.00 | 0.00 | 44 | 1009.3 |
| 20260505190324 | 51 | 331 | 4.0 | 16.0 | 0.00 | 0.00 | 0.00 | 42 | 1009.1 |
| 20260505185820 | 52 | 306 | 17.0 | 20.0 | 0.00 | 0.00 | 0.00 | 41 | 1009.2 |
| 20260505185317 | 51 | 317 | 17.0 | 27.0 | 0.00 | 0.00 | 0.00 | 40 | 1009.1 |
| 20260505184813 | 51 | 306 | 9.0 | 25.0 | 0.00 | 0.00 | 0.00 | 38 | 1009.0 |
| 20260505184310 | 51 | 321 | 11.0 | 20.0 | 0.00 | 0.00 | 0.00 | 40 | 1009.0 |
| 20260505183807 | 51 | 222 | 12.0 | 23.0 | 0.00 | 0.00 | 0.00 | 40 | 1009.2 |
| 20260505183304 | 51 | 320 | 13.0 | 22.0 | 0.00 | 0.00 | 0.00 | 39 | 1009.2 |
| 20260505182801 | 52 | 276 | 11.0 | 22.0 | 0.00 | 0.00 | 0.00 | 40 | 1009.0 |
| 20260505182257 | 51 | 289 | 11.0 | 20.0 | 0.00 | 0.00 | 0.00 | 40 | 1009.0 |
| 20260505181754 | 51 | 314 | 19.0 | 20.0 | 0.00 | 0.00 | 0.00 | 39 | 1009.0 |
| 20260505181251 | 53 | 289 | 13.0 | 23.0 | 0.00 | 0.00 | 0.00 | 41 | 1009.0 |
| 20260505180748 | 52 | 9 | 3.0 | 22.0 | 0.00 | 0.00 | 0.00 | 41 | 1009.0 |
| 20260505180244 | 51 | 311 | 6.0 | 26.0 | 0.00 | 0.00 | 0.00 | 42 | 1008.9 |
| 20260505175741 | 51 | 250 | 18.0 | 28.0 | 0.00 | 0.00 | 0.00 | 40 | 1008.9 |
| 20260505175237 | 52 | 282 | 5.0 | 22.0 | 0.00 | 0.00 | 0.00 | 42 | 1008.9 |
| 20260505174734 | 51 | 273 | 10.0 | 24.0 | 0.00 | 0.00 | 0.00 | 42 | 1008.9 |
| 20260505174231 | 50 | 258 | 15.0 | 23.0 | 0.00 | 0.00 | 0.00 | 42 | 1008.7 |
| 20260505173727 | 50 | 251 | 8.0 | 21.0 | 0.00 | 0.00 | 0.00 | 43 | 1008.9 |
| 20260505173224 | 50 | 294 | 17.0 | 24.0 | 0.00 | 0.00 | 0.00 | 44 | 1008.9 |
| 20260505172721 | 51 | 329 | 10.0 | 20.0 | 0.00 | 0.00 | 0.00 | 45 | 1009.0 |
| 20260505172218 | 51 | 232 | 13.0 | 24.0 | 0.00 | 0.00 | 0.00 | 43 | 1008.8 |
| 20260505171718 | 51 | 249 | 14.0 | 26.0 | 0.00 | 0.00 | 0.00 | 45 | 1008.9 |
| 20260505171215 | 50 | 328 | 5.0 | 23.0 | 0.00 | 0.00 | 0.00 | 43 | 1008.8 |
| 20260505170712 | 51 | 310 | 18.0 | 20.0 | 0.00 | 0.00 | 0.00 | 46 | 1008.9 |
| 20260505170209 | 50 | 318 | 10.0 | 22.0 | 0.00 | 0.00 | 0.00 | 46 | 1008.7 |
| 20260505165704 | 51 | 258 | 12.0 | 24.0 | 0.00 | 0.00 | 0.00 | 47 | 1008.8 |
| 20260505165200 | 51 | 259 | 3.0 | 22.0 | 0.00 | 0.00 | 0.00 | 44 | 1008.8 |
| 20260505164655 | 51 | 262 | 13.0 | 22.0 | 0.00 | 0.00 | 0.00 | 46 | 1008.6 |
| 20260505164153 | 50 | 241 | 20.0 | 21.0 | 0.00 | 0.00 | 0.00 | 45 | 1008.5 |
| 20260505163651 | 51 | 332 | 7.0 | 23.0 | 0.00 | 0.00 | 0.00 | 44 | 1008.8 |
| 20260505163149 | 50 | 255 | 9.0 | 21.0 | 0.00 | 0.00 | 0.00 | 47 | 1008.5 |
| 20260505162646 | 50 | 298 | 18.0 | 22.0 | 0.00 | 0.00 | 0.00 | 47 | 1008.6 |
| 20260505162143 | 49 | 251 | 10.0 | 22.0 | 0.00 | 0.00 | 0.00 | 49 | 1008.3 |
| 20260505161640 | 50 | 300 | 5.0 | 23.0 | 0.00 | 0.00 | 0.00 | 47 | 1008.7 |
| 20260505161137 | 50 | 283 | 13.0 | 20.0 | 0.00 | 0.00 | 0.00 | 49 | 1008.6 |
| 20260505160635 | 48 | 295 | 16.0 | 23.0 | 0.00 | 0.00 | 0.00 | 50 | 1008.6 |
| 20260505160132 | 51 | 38 | 4.0 | 23.0 | 0.00 | 0.00 | 0.00 | 52 | 1008.7 |
| 20260505153112 | 50 | 315 | 12.0 | 20.0 | 0.00 | 0.00 | 0.00 | 51 | 1008.6 |
| 20260505152608 | 49 | 229 | 14.0 | 24.0 | 0.00 | 0.00 | 0.00 | 53 | 1008.6 |
| 20260505152104 | 50 | 277 | 9.0 | 16.0 | 0.00 | 0.00 | 0.00 | 52 | 1008.6 |
| 20260505151559 | 49 | 333 | 10.0 | 18.0 | 0.00 | 0.00 | 0.00 | 52 | 1008.6 |
| 20260505151057 | 48 | 251 | 3.0 | 20.0 | 0.00 | 0.00 | 0.00 | 53 | 1008.6 |
| 20260505150553 | 48 | 295 | 14.0 | 25.0 | 0.00 | 0.00 | 0.00 | 52 | 1008.7 |
| 20260505140519 | 47 | 258 | 6.0 | 15.0 | 0.00 | 0.00 | 0.00 | 53 | 1008.7 |
| 20260505124932 | 46 | 296 | 9.0 | 13.0 | 0.00 | 0.00 | 0.00 | 58 | 1008.5 |
| 20260505124429 | 45 | 314 | 12.0 | 15.0 | 0.00 | 0.00 | 0.00 | 57 | 1008.3 |
| 20260505123925 | 45 | 278 | 6.0 | 12.0 | 0.00 | 0.00 | 0.00 | 59 | 1008.3 |
| 20260505123422 | 45 | 295 | 3.0 | 13.0 | 0.00 | 0.00 | 0.00 | 58 | 1008.3 |
| 20260505122917 | 45 | 309 | 6.0 | 13.0 | 0.00 | 0.00 | 0.00 | 60 | 1008.2 |
| 20260505122415 | 44 | 293 | 11.0 | 19.0 | 0.00 | 0.00 | 0.00 | 58 | 1008.1 |
| 20260505121912 | 44 | 309 | 7.0 | 11.0 | 0.00 | 0.00 | 0.00 | 59 | 1008.1 |
| 20260505121409 | 44 | 295 | 6.0 | 12.0 | 0.00 | 0.00 | 0.00 | 59 | 1007.9 |
| 20260505120905 | 44 | 286 | 6.0 | 12.0 | 0.00 | 0.00 | 0.00 | 59 | 1007.9 |
| 20260505120402 | 44 | 309 | 8.0 | 12.0 | 0.00 | 0.00 | 0.00 | 59 | 1007.7 |
| 20260505115900 | 44 | 287 | 6.0 | 8.0 | 0.00 | 0.00 | 0.00 | 60 | 1007.9 |
| 20260505115357 | 43 | 301 | 9.0 | 10.0 | 0.00 | 0.00 | 0.00 | 60 | 1007.9 |
| 20260505114855 | 43 | 322 | 9.0 | 11.0 | 0.00 | 0.00 | 0.00 | 61 | 1007.8 |
| 20260505114351 | 43 | 298 | 4.0 | 9.0 | 0.00 | 0.00 | 0.00 | 61 | 1007.6 |
| 20260505113848 | 43 | 303 | 7.0 | 10.0 | 0.00 | 0.00 | 0.00 | 60 | 1007.9 |
| 20260505113344 | 42 | 322 | 7.0 | 8.0 | 0.00 | 0.00 | 0.00 | 61 | 1007.8 |
| 20260505112840 | 42 | 296 | 5.0 | 9.0 | 0.00 | 0.00 | 0.00 | 62 | 1007.5 |
| 20260505112338 | 42 | 306 | 4.0 | 7.0 | 0.00 | 0.00 | 0.00 | 62 | 1007.6 |
| 20260505111833 | 41 | 289 | 5.0 | 6.0 | 0.00 | 0.00 | 0.00 | 62 | 1007.6 |
| 20260505111329 | 41 | 300 | 6.0 | 6.0 | 0.00 | 0.00 | 0.00 | 61 | 1007.6 |
| 20260505110825 | 41 | 289 | 2.0 | 5.0 | 0.00 | 0.00 | 0.00 | 60 | 1007.6 |
| 20260505110323 | 41 | 261 | 3.0 | 4.0 | 0.00 | 0.00 | 0.00 | 59 | 1007.4 |
| 20260505101757 | 41 | 287 | 3.0 | 6.0 | 0.00 | 0.00 | 0.00 | 60 | 1007.0 |
| 20260505101253 | 41 | 296 | 4.0 | 5.0 | 0.00 | 0.00 | 0.00 | 60 | 1007.0 |
| 20260505100749 | 41 | 313 | 3.0 | 5.0 | 0.00 | 0.00 | 0.00 | 60 | 1007.0 |
| 20260505100246 | 41 | 283 | 3.0 | 5.0 | 0.00 | 0.00 | 0.00 | 59 | 1007.0 |
| 20260505095741 | 41 | 305 | 4.0 | 5.0 | 0.00 | 0.00 | 0.00 | 60 | 1007.0 |
| 20260505095240 | 41 | 301 | 4.0 | 5.0 | 0.00 | 0.00 | 0.00 | 61 | 1007.0 |
| 20260505094735 | 40 | 303 | 3.0 | 5.0 | 0.00 | 0.00 | 0.00 | 62 | 1007.2 |
| 20260505094231 | 41 | 332 | 2.0 | 5.0 | 0.00 | 0.00 | 0.00 | 62 | 1007.2 |
| 20260505093727 | 41 | 324 | 4.0 | 5.0 | 0.00 | 0.00 | 0.00 | 61 | 1007.0 |
| 20260505093225 | 41 | 315 | 3.0 | 5.0 | 0.00 | 0.00 | 0.00 | 60 | 1006.7 |
| 20260505092722 | 41 | 298 | 3.0 | 5.0 | 0.00 | 0.00 | 0.00 | 61 | 1006.8 |
| 20260505092221 | 41 | 296 | 3.0 | 4.0 | 0.00 | 0.00 | 0.00 | 61 | 1006.9 |
| 20260505091717 | 41 | 236 | 3.0 | 5.0 | 0.00 | 0.00 | 0.00 | 59 | 1006.5 |
| 20260505091215 | 41 | 304 | 4.0 | 5.0 | 0.00 | 0.00 | 0.00 | 60 | 1006.5 |
| 20260505090713 | 42 | 308 | 5.0 | 5.0 | 0.00 | 0.00 | 0.00 | 58 | 1006.4 |
| 20260505090211 | 42 | 319 | 7.0 | 9.0 | 0.00 | 0.00 | 0.00 | 57 | 1006.4 |
| 20260505085708 | 42 | 323 | 7.0 | 7.0 | 0.00 | 0.00 | 0.00 | 58 | 1006.3 |
| 20260505085206 | 42 | 263 | 0.0 | 3.0 | 0.00 | 0.00 | 0.00 | 58 | 1006.4 |
| 20260505084703 | 43 | 307 | 3.0 | 4.0 | 0.00 | 0.00 | 0.00 | 55 | 1006.0 |
| 20260505084202 | 43 | 319 | 5.0 | 6.0 | 0.00 | 0.00 | 0.00 | 54 | 1005.8 |
| 20260505083659 | 43 | 314 | 4.0 | 5.0 | 0.00 | 0.00 | 0.00 | 53 | 1005.6 |
| 20260505083155 | 43 | 346 | 6.0 | 6.0 | 0.00 | 0.00 | 0.00 | 52 | 1005.6 |
| 20260505082651 | 43 | 341 | 4.0 | 6.0 | 0.00 | 0.00 | 0.00 | 52 | 1005.7 |
| 20260505082148 | 44 | 331 | 3.0 | 7.0 | 0.00 | 0.00 | 0.00 | 51 | 1005.5 |
| 20260505081644 | 44 | 338 | 9.0 | 9.0 | 0.00 | 0.00 | 0.00 | 50 | 1005.5 |
| 20260505081142 | 44 | 352 | 5.0 | 7.0 | 0.00 | 0.00 | 0.00 | 50 | 1005.7 |
| 20260505080639 | 45 | 326 | 8.0 | 12.0 | 0.00 | 0.00 | 0.00 | 49 | 1005.6 |
| 20260505080134 | 44 | 346 | 5.0 | 8.0 | 0.00 | 0.00 | 0.00 | 50 | 1005.5 |
| 20260505075631 | 45 | 347 | 7.0 | 13.0 | 0.00 | 0.00 | 0.00 | 49 | 1005.6 |
| 20260505075128 | 45 | 334 | 8.0 | 15.0 | 0.00 | 0.00 | 0.00 | 48 | 1005.4 |
| 20260505074625 | 45 | 352 | 7.0 | 14.0 | 0.00 | 0.00 | 0.00 | 49 | 1005.3 |
| 20260505074122 | 45 | 331 | 8.0 | 15.0 | 0.00 | 0.00 | 0.00 | 48 | 1005.3 |
| 20260505073620 | 45 | 339 | 12.0 | 15.0 | 0.00 | 0.00 | 0.00 | 48 | 1005.5 |
| 20260505073118 | 46 | 324 | 14.0 | 20.0 | 0.00 | 0.00 | 0.00 | 47 | 1005.3 |
| 20260505072613 | 46 | 5 | 8.0 | 18.0 | 0.00 | 0.00 | 0.00 | 48 | 1005.1 |
| 20260505072110 | 46 | 346 | 9.0 | 15.0 | 0.00 | 0.00 | 0.00 | 48 | 1005.2 |
| 20260505071605 | 46 | 347 | 12.0 | 16.0 | 0.00 | 0.00 | 0.00 | 48 | 1005.0 |
| 20260505071103 | 46 | 339 | 13.0 | 22.0 | 0.00 | 0.00 | 0.00 | 49 | 1005.4 |
| 20260505070600 | 47 | 354 | 17.0 | 18.0 | 0.00 | 0.00 | 0.00 | 51 | 1005.4 |
| 20260505070056 | 47 | 354 | 8.0 | 18.0 | 0.00 | 0.00 | 0.00 | 52 | 1005.2 |
| 20260505065552 | 47 | 356 | 10.0 | 17.0 | 0.00 | 0.00 | 0.00 | 53 | 1005.3 |
| 20260505065049 | 47 | 319 | 6.0 | 15.0 | 0.00 | 0.00 | 0.00 | 54 | 1005.3 |
| 20260505064546 | 48 | 355 | 12.0 | 18.0 | 0.00 | 0.00 | 0.00 | 53 | 1005.3 |
| 20260505064044 | 48 | 322 | 7.0 | 10.0 | 0.00 | 0.00 | 0.00 | 52 | 1005.0 |
| 20260505063542 | 48 | 322 | 10.0 | 13.0 | 0.00 | 0.00 | 0.00 | 51 | 1005.1 |
| 20260505063037 | 48 | 333 | 9.0 | 17.0 | 0.00 | 0.00 | 0.00 | 52 | 1004.8 |
| 20260505062534 | 49 | 330 | 12.0 | 15.0 | 0.00 | 0.00 | 0.00 | 52 | 1004.9 |
| 20260505062031 | 49 | 332 | 11.0 | 18.0 | 0.00 | 0.00 | 0.00 | 52 | 1005.0 |
| 20260505061529 | 49 | 339 | 12.0 | 13.0 | 0.00 | 0.00 | 0.00 | 52 | 1004.8 |
| 20260505061026 | 49 | 334 | 11.0 | 22.0 | 0.00 | 0.00 | 0.00 | 51 | 1004.9 |
| 20260505060524 | 49 | 341 | 9.0 | 20.0 | 0.00 | 0.00 | 0.00 | 51 | 1004.8 |
| 20260505060020 | 50 | 342 | 11.0 | 23.0 | 0.00 | 0.00 | 0.00 | 50 | 1004.8 |
| 20260505055515 | 50 | 337 | 13.0 | 17.0 | 0.00 | 0.00 | 0.00 | 51 | 1004.5 |
| 20260505055013 | 50 | 324 | 7.0 | 16.0 | 0.00 | 0.00 | 0.00 | 50 | 1004.6 |
| 20260505054510 | 50 | 320 | 7.0 | 19.0 | 0.00 | 0.00 | 0.00 | 49 | 1004.4 |
| 20260505054008 | 50 | 338 | 16.0 | 21.0 | 0.00 | 0.00 | 0.00 | 48 | 1004.3 |
| 20260505053505 | 50 | 353 | 9.0 | 14.0 | 0.00 | 0.00 | 0.00 | 49 | 1004.4 |
| 20260505053001 | 51 | 335 | 13.0 | 20.0 | 0.00 | 0.00 | 0.00 | 49 | 1004.3 |
| 20260505052459 | 51 | 355 | 6.0 | 19.0 | 0.00 | 0.00 | 0.00 | 48 | 1004.1 |
| 20260505051955 | 52 | 317 | 17.0 | 18.0 | 0.00 | 0.00 | 0.00 | 48 | 1003.6 |
| 20260505051452 | 52 | 344 | 11.0 | 18.0 | 0.00 | 0.00 | 0.00 | 47 | 1003.7 |
| 20260505050951 | 52 | 347 | 12.0 | 14.0 | 0.00 | 0.00 | 0.00 | 48 | 1003.5 |
| 20260505050449 | 52 | 336 | 8.0 | 13.0 | 0.00 | 0.00 | 0.00 | 48 | 1003.2 |
| 20260505041416 | 55 | 347 | 9.0 | 16.0 | 0.00 | 0.00 | 0.00 | 49 | 1002.5 |
| 20260505040913 | 55 | 317 | 12.0 | 15.0 | 0.00 | 0.00 | 0.00 | 48 | 1002.5 |
| 20260505040411 | 55 | 356 | 12.0 | 17.0 | 0.00 | 0.00 | 0.00 | 48 | 1002.5 |
| 20260505035907 | 55 | 319 | 11.0 | 20.0 | 0.00 | 0.00 | 0.00 | 49 | 1002.2 |
| 20260505035403 | 55 | 338 | 7.0 | 12.0 | 0.00 | 0.00 | 0.00 | 49 | 1002.2 |
| 20260505034901 | 55 | 344 | 11.0 | 17.0 | 0.00 | 0.00 | 0.00 | 48 | 1002.1 |
| 20260505034357 | 56 | 337 | 9.0 | 15.0 | 0.00 | 0.00 | 0.00 | 47 | 1002.1 |
| 20260505033854 | 56 | 337 | 9.0 | 17.0 | 0.00 | 0.00 | 0.00 | 47 | 1001.7 |
| 20260505033351 | 56 | 326 | 14.0 | 19.0 | 0.00 | 0.00 | 0.00 | 47 | 1001.4 |
| 20260505032849 | 57 | 342 | 9.0 | 13.0 | 0.00 | 0.00 | 0.00 | 46 | 1001.4 |
| 20260505032345 | 57 | 345 | 11.0 | 18.0 | 0.00 | 0.00 | 0.00 | 46 | 1001.1 |
| 20260505031842 | 57 | 335 | 15.0 | 21.0 | 0.00 | 0.00 | 0.00 | 45 | 1000.8 |
| 20260505031339 | 57 | 336 | 9.0 | 21.0 | 0.00 | 0.00 | 0.00 | 43 | 1000.5 |
| 20260505030837 | 57 | 326 | 7.0 | 14.0 | 0.00 | 0.00 | 0.00 | 43 | 1000.5 |
| 20260505030332 | 57 | 339 | 8.0 | 16.0 | 0.00 | 0.00 | 0.00 | 43 | 1000.3 |
| 20260505025828 | 57 | 321 | 8.0 | 18.0 | 0.00 | 0.00 | 0.00 | 42 | 1000.0 |
| 20260505025326 | 57 | 315 | 9.0 | 16.0 | 0.00 | 0.00 | 0.00 | 42 | 1000.0 |
| 20260505024824 | 58 | 336 | 14.0 | 20.0 | 0.00 | 0.00 | 0.00 | 41 | 1000.2 |
| 20260505024321 | 58 | 328 | 14.0 | 26.0 | 0.00 | 0.00 | 0.00 | 40 | 1000.2 |
| 20260505023818 | 58 | 315 | 14.0 | 27.0 | 0.00 | 0.00 | 0.00 | 40 | 1000.1 |
| 20260505023315 | 59 | 316 | 18.0 | 23.0 | 0.00 | 0.00 | 0.00 | 41 | 1000.0 |
| 20260505022813 | 59 | 321 | 13.0 | 23.0 | 0.00 | 0.00 | 0.00 | 41 | 999.8 |
| 20260505022309 | 59 | 328 | 17.0 | 20.0 | 0.00 | 0.00 | 0.00 | 41 | 999.8 |
| 20260505021806 | 59 | 327 | 9.0 | 19.0 | 0.00 | 0.00 | 0.00 | 41 | 1000.1 |
| 20260505021303 | 59 | 315 | 17.0 | 25.0 | 0.00 | 0.00 | 0.00 | 41 | 999.7 |
| 20260505020759 | 60 | 321 | 18.0 | 25.0 | 0.00 | 0.00 | 0.00 | 41 | 999.6 |
| 20260505020254 | 60 | 319 | 16.0 | 22.0 | 0.00 | 0.00 | 0.00 | 40 | 999.5 |
| 20260505015752 | 61 | 329 | 13.0 | 23.0 | 0.00 | 0.00 | 0.00 | 41 | 999.4 |
| 20260505015249 | 61 | 312 | 10.0 | 19.0 | 0.00 | 0.00 | 0.00 | 41 | 999.3 |
| 20260505014746 | 61 | 296 | 15.0 | 19.0 | 0.00 | 0.00 | 0.00 | 42 | 999.2 |
| 20260505014243 | 61 | 319 | 9.0 | 19.0 | 0.00 | 0.00 | 0.00 | 41 | 998.9 |
| 20260505013739 | 62 | 318 | 12.0 | 24.0 | 0.00 | 0.00 | 0.00 | 40 | 998.8 |
| 20260505013237 | 62 | 294 | 17.0 | 20.0 | 0.00 | 0.00 | 0.00 | 40 | 998.7 |
| 20260505012735 | 62 | 308 | 30.0 | 30.0 | 0.00 | 0.00 | 0.00 | 39 | 998.8 |
| 20260505012232 | 62 | 309 | 14.0 | 22.0 | 0.00 | 0.00 | 0.00 | 39 | 998.5 |
| 20260505011727 | 63 | 302 | 17.0 | 20.0 | 0.00 | 0.00 | 0.00 | 39 | 998.7 |
| 20260505011225 | 63 | 323 | 10.0 | 19.0 | 0.00 | 0.00 | 0.00 | 38 | 998.4 |
| 20260505010720 | 63 | 310 | 8.0 | 20.0 | 0.00 | 0.00 | 0.00 | 38 | 998.4 |
| 20260505010217 | 64 | 321 | 14.0 | 26.0 | 0.00 | 0.00 | 0.00 | 36 | 998.4 |
| 20260505005714 | 64 | 311 | 17.0 | 24.0 | 0.00 | 0.00 | 0.00 | 36 | 998.4 |
| 20260505005211 | 64 | 302 | 17.0 | 28.0 | 0.00 | 0.00 | 0.00 | 35 | 998.3 |
| 20260505004708 | 64 | 305 | 14.0 | 27.0 | 0.00 | 0.00 | 0.00 | 36 | 998.1 |
| 20260505004204 | 64 | 315 | 20.0 | 24.0 | 0.00 | 0.00 | 0.00 | 37 | 998.2 |
| 20260505003701 | 64 | 307 | 10.0 | 18.0 | 0.00 | 0.00 | 0.00 | 40 | 998.0 |
| 20260505003159 | 65 | 307 | 9.0 | 20.0 | 0.00 | 0.00 | 0.00 | 38 | 997.9 |
| 20260505002655 | 66 | 311 | 19.0 | 26.0 | 0.00 | 0.00 | 0.00 | 36 | 997.6 |
| 20260505002153 | 66 | 320 | 9.0 | 22.0 | 0.00 | 0.00 | 0.00 | 38 | 997.8 |
| 20260505001650 | 66 | 328 | 10.0 | 16.0 | 0.00 | 0.00 | 0.00 | 39 | 997.5 |
| 20260505001147 | 66 | 319 | 13.0 | 16.0 | 0.00 | 0.00 | 0.00 | 36 | 997.1 |
| 20260505000644 | 66 | 327 | 13.0 | 18.0 | 0.00 | 0.00 | 0.00 | 37 | 997.4 |
| 20260505000142 | 67 | 297 | 12.0 | 22.0 | 0.00 | 0.00 | 0.00 | 38 | 997.2 |
| 20260504235638 | 67 | 305 | 22.0 | 28.0 | 0.00 | 0.00 | 0.00 | 37 | 997.0 |
| 20260504235135 | 67 | 326 | 12.0 | 20.0 | 0.00 | 0.00 | 0.00 | 37 | 997.0 |
| 20260504234632 | 68 | 294 | 19.0 | 26.0 | 0.00 | 0.00 | 0.00 | 36 | 996.9 |
| 20260504234130 | 68 | 305 | 17.0 | 25.0 | 0.00 | 0.00 | 0.00 | 37 | 996.9 |
| 20260504233625 | 68 | 306 | 9.0 | 18.0 | 0.00 | 0.00 | 0.00 | 38 | 997.0 |
| 20260504233121 | 68 | 298 | 20.0 | 23.0 | 0.00 | 0.00 | 0.00 | 38 | 996.9 |
| 20260504232619 | 68 | 274 | 15.0 | 25.0 | 0.00 | 0.00 | 0.00 | 36 | 997.1 |
| 20260504232116 | 68 | 286 | 15.0 | 22.0 | 0.00 | 0.00 | 0.00 | 37 | 996.7 |
| 20260504231613 | 69 | 303 | 22.0 | 24.0 | 0.00 | 0.00 | 0.00 | 35 | 996.7 |
| 20260504231109 | 69 | 320 | 14.0 | 20.0 | 0.00 | 0.00 | 0.00 | 36 | 996.8 |
| 20260504230605 | 69 | 304 | 13.0 | 19.0 | 0.00 | 0.00 | 0.00 | 37 | 996.8 |
| 20260504230104 | 69 | 304 | 18.0 | 20.0 | 0.00 | 0.00 | 0.00 | 37 | 997.0 |
| 20260504225601 | 69 | 337 | 18.0 | 20.0 | 0.00 | 0.00 | 0.00 | 37 | 997.0 |
| 20260504225058 | 70 | 312 | 10.0 | 18.0 | 0.00 | 0.00 | 0.00 | 40 | 996.7 |
| 20260504224554 | 70 | 271 | 10.0 | 21.0 | 0.00 | 0.00 | 0.00 | 38 | 996.9 |
| 20260504224052 | 71 | 311 | 9.0 | 21.0 | 0.00 | 0.00 | 0.00 | 40 | 996.3 |
| 20260504223549 | 71 | 313 | 14.0 | 25.0 | 0.00 | 0.00 | 0.00 | 39 | 996.6 |
| 20260504223044 | 71 | 307 | 15.0 | 24.0 | 0.00 | 0.00 | 0.00 | 40 | 996.6 |
| 20260504222541 | 71 | 295 | 15.0 | 26.0 | 0.00 | 0.00 | 0.00 | 40 | 996.6 |
| 20260504222039 | 71 | 296 | 13.0 | 25.0 | 0.00 | 0.00 | 0.00 | 39 | 996.6 |
| 20260504221536 | 72 | 281 | 21.0 | 29.0 | 0.00 | 0.00 | 0.00 | 38 | 996.3 |
| 20260504221032 | 72 | 317 | 17.0 | 32.0 | 0.00 | 0.00 | 0.00 | 37 | 996.2 |
| 20260504220529 | 72 | 271 | 24.0 | 32.0 | 0.00 | 0.00 | 0.00 | 38 | 996.3 |
| 20260504220026 | 72 | 294 | 15.0 | 22.0 | 0.00 | 0.00 | 0.00 | 41 | 996.2 |
| 20260504215522 | 72 | 305 | 23.0 | 26.0 | 0.00 | 0.00 | 0.00 | 40 | 996.0 |
| 20260504215020 | 72 | 316 | 24.0 | 31.0 | 0.00 | 0.00 | 0.00 | 40 | 996.0 |
| 20260504214516 | 72 | 309 | 14.0 | 26.0 | 0.00 | 0.00 | 0.00 | 41 | 996.0 |
| 20260504214012 | 73 | 304 | 22.0 | 27.0 | 0.00 | 0.00 | 0.00 | 39 | 996.0 |
| 20260504213509 | 73 | 295 | 23.0 | 27.0 | 0.00 | 0.00 | 0.00 | 41 | 995.8 |
| 20260504213006 | 73 | 315 | 17.0 | 34.0 | 0.00 | 0.00 | 0.00 | 40 | 995.6 |
| 20260504212502 | 73 | 308 | 20.0 | 32.0 | 0.00 | 0.00 | 0.00 | 39 | 995.8 |
| 20260504211959 | 74 | 297 | 15.0 | 23.0 | 0.00 | 0.00 | 0.00 | 40 | 995.8 |
| 20260504211456 | 74 | 264 | 14.0 | 25.0 | 0.00 | 0.00 | 0.00 | 42 | 995.7 |
| 20260504210953 | 74 | 312 | 8.0 | 24.0 | 0.00 | 0.00 | 0.00 | 43 | 995.9 |
| 20260504210450 | 75 | 320 | 10.0 | 23.0 | 0.00 | 0.00 | 0.00 | 42 | 995.7 |
| 20260504205947 | 74 | 270 | 9.0 | 19.0 | 0.00 | 0.00 | 0.00 | 43 | 995.6 |
| 20260504205444 | 74 | 318 | 17.0 | 25.0 | 0.00 | 0.00 | 0.00 | 43 | 995.8 |
| 20260504204943 | 74 | 289 | 11.0 | 26.0 | 0.00 | 0.00 | 0.00 | 43 | 995.7 |